Voltar ao catálogo

STARLINK-31953

AtivoComunicaçõesVLEO
NORAD 59898·PAYLOAD·🇺🇸 United States

Lançado May 28, 2024 de Cape Canaveral Space Force Station

Loading…

Próximas Passagens (próximas 24 horas)

TLE

AtualizadoSource: CelesTrak SupGP

Época: Sep 15, 2026, 02:59 UTC

1 59898C 24100P   26258.12479167  .00060829  00000+0  22031-2 0  2588
2 59898  43.0012 132.1700 0001271 276.5143 235.3416 15.27550975    15

Acompanhe STARLINK-31953 em tempo real com AllMySat

Download on the App Store